Regional Weather Roundup
Issued by NWS

Home | Current Version | Previous Version | Graphics & Text | Print | Product List | Glossary On
Versions: 1 2 3 4 5 6 7 8 9 10 11 12 13 14 15 16 17 18 19 20 21 22 23 24 25 26 27 28 29 30 31 32 33 34 35 36 37 38 39 40 41 42 43 44 45 46 47 48 49 50
596
ASUS43 KIND 260209
RWRIN

WEATHER ROUNDUP FOR INDIANA
NATIONAL WEATHER SERVICE INDIANAPOLIS IN
1000 PM EDT SAT MAR 25 2017

NOTE: "FAIR" INDICATES FEW OR NO CLOUDS BELOW 12,000 FEET WITH NO
SIGNIFICANT WEATHER AND/OR OBSTRUCTIONS TO VISIBILITY.

* - STATION DOES NOT REPORT WEATHER SUCH AS PRECIPITATION OR FOG.

+ - STATION NOT QUALITY CONTROLLED BY THE NATIONAL WEATHER SERVICE.
    USE DATA WITH CAUTION...ESPECIALLY DEWPOINT AND RELATIVE
    HUMIDITY OBSERVATIONS.

INZ001>003-010>013-019-020-260300-
NORTHWEST INDIANA

CITY           SKY/WX    TMP DP  RH WIND       PRES   REMARKS
GARY /AIRPORT/ CLOUDY    46  45  93 CALM      29.98S FOG
KNOX *+        MOCLDY    52  37  58 E12       30.00R
LA PORTE +     CLOUDY    50  48  93 E10       30.01R
MICHIGAN CITY+ CLOUDY    52  48  87 E9        30.01R
MONTICELLO +   LGT RAIN  58  55  89 E8        29.97R
RENSSELAER +   LGT RAIN  57  55  94 E13       29.96S
VALPARAISO     CLOUDY    53  51  93 E13       30.00R FOG

$$

LMZ046-743>745-260300-
SOUTHERN LAKE MICHIGAN

STATION/POSITION TIME  TEMP    WIND        PRES    WAVE
                       AIR SEA DIR/SP/G            HT
                 (UTC) (F)     (DEG/KT/KT) (MB)    (FT)
BURNS HARBOR     0108   56     110/ 14/ 19 1015.6
MICHIGAN CITY    0140   53     100/ 12/ 15   N/A

$$

INZ004-005-014>016-021>024-260300-
NORTH CENTRAL INDIANA

CITY           SKY/WX    TMP DP  RH WIND       PRES   REMARKS
GOSHEN         CLOUDY    47  42  83 E10G20    30.05R
LOGANSPORT +   LGT RAIN  52  50  93 E14       30.01R
PERU/GRISSOM   LGT RAIN  53  53 100 E9        30.00R
ROCHESTER +    LGT RAIN  54  52  94 E14       30.03F
SOUTH BEND     CLOUDY    48  32  53 SE17G26   30.03R
WARSAW +       RAIN      46  45  93 E6        30.07R

$$

INZ006>009-017-018-025>027-260300-
NORTHEAST INDIANA

CITY           SKY/WX    TMP DP  RH WIND       PRES   REMARKS
ANGOLA *+      CLOUDY    43  41  93 E14       30.06S
AUBURN +       CLOUDY    43  37  81 E13G18    30.07R
FORT WAYNE     CLOUDY    46  41  82 E14       30.04R
HUNTINGTON +   LGT RAIN  47  45  95 E6        30.06R
KENDALLVILLE + CLOUDY    43  40  91 E12       30.06S

$$

INZ028-029-035-036-043>045-051>053-260300-
WEST CENTRAL INDIANA

CITY           SKY/WX    TMP DP  RH WIND       PRES   REMARKS
CRAWFORDSVL +  CLOUDY    59  55  84 SE8       29.96S
GREENCASTLE +  CLOUDY    59  54  82 SE12      29.98R
LAFAYETTE      CLOUDY    61  55  81 SE12      29.96R
TERRE HAUTE    CLOUDY    63  53  70 SE7       29.94R

$$

INZ030>032-037>040-046>048-054>057-064-065-260300-
CENTRAL INDIANA

CITY           SKY/WX    TMP DP  RH WIND       PRES   REMARKS
CP ATTERBURY + RAIN      61  55  82 CALM      30.01F
COLUMBUS       LGT RAIN  59  59 100 S7        30.02S
FRANKFORT +    LGT RAIN  61  58  90 S9        30.00R
GREENWOOD *+   CLOUDY    60  59  96 S10       30.02R
INDIANAPOLIS   LGT RAIN  59  58  96 S8        29.99R
-EAGLE CREEK   LGT RAIN  60  57  89 S7        29.99R
KOKOMO +       LGT RAIN  54  52  93 NE9       30.01R
MARION +       CLOUDY    56  53  91 NE9       30.01S
MT COMFORT *+  CLOUDY    61  55  82 SW5       30.01R
SHELBYVILLE    LGT RAIN  63  55  75 SW13      30.02R
ZIONSVILLE +   LGT RAIN  58  56  92 S8        30.00R

$$

INZ033-034-041-042-049-050-058-059-260300-
EAST CENTRAL INDIANA

CITY           SKY/WX    TMP DP  RH WIND       PRES   REMARKS
MUNCIE         CLOUDY    64  54  69 NW7       30.01R
RICHMOND +     PTCLDY    61  50  67 SE10      30.04R

$$

INZ060-061-067>069-081>083-085>088-260300-
SOUTHWEST INDIANA

CITY           SKY/WX    TMP DP  RH WIND       PRES   REMARKS
EVANSVILLE     LGT RAIN  65  56  72 SE8       29.93R
HUNTINGBURG *+ CLOUDY    62  55  77 SE12      29.95S
WASHINGTON +   CLOUDY    62  55  77 CALM      29.94S

$$

INZ062-063-066-070>080-084-089>092-260300-
SOUTH CENTRAL AND SOUTHEAST INDIANA

CITY           SKY/WX    TMP DP  RH WIND       PRES   REMARKS
BEDFORD +      CLOUDY   N/A N/A N/A SE6       29.97
BLOOMINGTON    LGT RAIN  60  56  86 SE8       29.97F
MADISON *+     CLOUDY    68  46  45 CALM      30.02S
NORTH VERNON + LGT RAIN  63  59  88 W12       30.02R
SEYMOUR +      CLOUDY    61  59  94 CALM      29.99F

$$





USA.gov is the U.S. government's official web portal to all federal, state and local government web resources and services.